Lid_Strength_Index
0 -0 -0 -0 -0 -0 -0 0 -0 0 0 -0 -0 -0 0 -0 -0 -0 -0 -2 -2 -2 -2 -2 -1 -2 -1 -1 -1 -2 -2 -1 -1 -1 -1 -1 -2 -2 -2 -2 -2 -2 -2
-0 -0 0 0 -0 -0 -0 -0 0 0 0 0 0 0 0 -0 -0 -0 -0 -1 -2 -2 -2 -2 -1 -1 -1 -1 -2 -2 -2 -2 -1 -1 -1 -1 -1 -1 -2 -2 -2 -1 -2
-0 -0 0 0 -0 -1 -0 -0 -0 0 0 0 0 0 0 -0 -0 -0 -0 -0 -1 -2 -2 -2 -2 -2 -1 -2 -2 -2 -2 -2 -2 -1 -1 -1 -1 -1 -1 -2 -2 -1 -1
-1 -0 0 0 -0 -0 0 0 0 1 1 1 1 1 0 0 0 0 -0 -0 -0 -0 -1 -1 -2 -2 -1 -1 -2 -2 -2 -2 -2 -1 -1 -1 -1 -1 -1 -1 -2 -2 -1
-0 0 0 0 -0 0 0 0 1 1 1 1 1 1 1 1 1 0 0 0 -0 -0 -0 -1 -1 -1 -1 -2 -2 -2 -2 -2 -2 -2 -2 -1 -1 -1 -1 -1 -1 -2 -2
-0 0 0 0 0 0 1 1 1 1 1 1 1 1 1 1 0 1 1 0 0 -0 -0 -0 -0 -1 -1 -2 -2 -2 -2 -2 -2 -2 -2 -1 -1 -1 -1 -1 -1 -1 -1
-0 0 0 0 0 1 1 1 1 2 2 1 2 2 2 1 1 1 0 0 0 0 -0 -0 -0 -0 -0 -1 -1 -1 -2 -2 -2 -2 -1 -1 -1 -1 -1 -1 -1 -1 -1
-0 0 0 1 0 1 1 1 1 2 2 1 3 3 5 4 2 1 1 1 1 0 0 0 -0 -0 -0 -0 -0 -1 -2 -2 -2 -2 -1 -1 -1 -1 -1 -1 -1 -1 -1
0 0 0 0 1 1 1 1 1 2 3 2 1 3 6 6 4 2 2 1 1 1 1 0 0 -0 -0 0 -1 -1 -1 -1 -2 -2 -1 -1 -1 -1 -1 -1 -1 -1 -1
0 0 0 0 0 0 1 1 1 1 2 3 2 1 2 3 6 6 3 2 1 1 1 1 0 0 0 -0 -1 -1 -1 -1 -2 -2 -1 -1 -2 -1 -1 -1 -1 -1 -1
0 0 0 0 1 1 1 1 1 1 1 2 2 2 3 3 3 4 6 4 2 1 1 1 1 0 0 0 -0 -0 -0 -0 -1 -1 -1 -1 -2 -1 -1 -1 -1 -1 -1
1 1 0 0 0 1 1 1 1 1 1 1 1 2 3 4 4 4 5 4 4 3 1 1 1 0 0 -0 -1 -1 -0 0 0 0 -0 -0 -1 -1 -1 -1 -1 -1 -1
1 1 1 1 1 1 1 1 1 1 1 1 2 2 2 2 2 3 3 4 5 3 3 1 1 0 0 -0 -0 -1 -0 0 1 1 1 0 -0 -1 -1 -1 -1 -1 -1
1 0 1 1 1 1 1 1 1 1 1 1 1 2 2 2 2 2 3 4 5 5 3 3 1 1 0 0 -0 -0 0 1 1 1 2 1 1 0 0 -0 0 -0 -0
1 1 0 1 1 1 1 1 1 1 1 1 1 1 2 1 1 1 2 2 4 6 5 3 3 1 0 0 -0 0 0 1 1 2 2 2 2 1 1 1 1 1 1
1 1 1 1 1 1 1 1 1 1 1 1 1 1 1 1 1 1 2 2 2 4 6 3 3 1 1 0 0 0 0 1 2 3 2 2 3 2 1 2 2 2 2
1 1 1 1 1 1 1 1 1 1 2 2 1 2 2 1 2 2 1 2 2 2 4 3 2 1 1 1 1 1 0 0 1 3 3 2 3 3 2 2 2 3 2
1 1 1 1 1 1 1 1 2 1 2 2 2 2 2 1 2 2 2 2 2 2 3 4 3 2 2 1 1 1 1 0 0 3 4 4 4 4 4 4 4 4 4
1 1 1 1 1 1 1 1 1 2 2 2 2 2 2 2 2 2 2 2 2 2 2 3 3 2 2 1 2 1 1 1 -0 2 4 3 3 4 4 5 5 5 5
1 1 1 1 1 1 1 1 1 2 2 1 1 1 2 2 2 2 2 2 2 2 3 3 3 3 2 2 2 3 3 1 1 -0 2 2 3 3 4 5 5 5 6
1 1 1 1 1 1 1 1 1 2 2 2 2 1 1 2 3 2 2 2 2 2 3 3 4 3 3 3 3 2 3 2 2 1 1 1 2 2 3 4 3 4 6
1 1 1 1 2 1 5 7 3 2 2 2 2 2 1 4 4 6 7 5 2 2 3 3 4 4 3 3 2 3 3 3 5 1 2 2 0 1 1 1 4 6 7
1 2 2 2 2 1 7 10 8 1 2 2 2 2 2 1 4 4 7 5 6 5 4 2 3 3 3 2 2 3 3 3 4 2 2 3 1 2 1 2 6 7 7
2 2 2 2 2 2 8 11 9 1 1 2 2 1 2 2 1 1 2 2 1 2 2 1 1 2 1 1 1 1 2 2 1 1 1 4 2 2 2 3 7 8 8
2 2 2 2 2 2 11 12 7 2 2 2 1 1 1 1 7 7 2 2 2 3 8 8 8 9 8 8 5 1 3 3 4 3 1 2 2 3 2 3 5 7 8
2 2 2 2 3 2 13 12 5 2 2 2 2 1 7 2 10 9 2 2 3 2 2 2 2 4 4 4 6 1 1 3 4 4 2 3 2 3 4 2 4 5 6